Погода в Принсипи

Сан-Томе и Принсипи     1°37′00″N   7°24′29″E
темп.,
°C
ветер,
м/с
пор.,
м/с
влажн.,
%
обл.,
%
осадки,
мм/ч
давл.,
гПа
погр.,
м
5 августа, чт
чт500:00+26ююз667742 0.0 1016720
03:00+26ююз667513 0.0 1015809
06:00+26ююз6673100 0.0 1016734
09:00+26ю67759 0.0 1018663
12:00+26ююз67775 0.0 1016549
15:00+26ююз67755 0.0 1014601
18:00+26ююз67755 0.0 1015655
21:00+26юз55775 0.0 1017658
6 августа, пт
пт600:00+26юз5578100 0.0 1016676
03:00+26ююз337895 0.0 1015599
06:00+26зюз3378100 0.1 1016520
09:00+26зюз337950 0.3 1018417
12:00+26юз447999 0.3 1016568
15:00+26з447933 0.1 1014627
18:00+26зюз668098 0.1 1014674
21:00+26зюз558020 0.1 1016638
7 августа, сб
сб700:00+26юз6681100 0.1 1015659
03:00+25юз6681100 0.1 1014659
06:00+26юз557982 0.1 1015662
09:00+26зюз447782 0.0 1017619
12:00+26зюз557881 0.0 1015697
15:00+26зюз557895 0.0 1013703
18:00+26зюз6679100 0.0 1015684
21:00+26зюз6680100 0.0 1017737
8 августа, вс
вс800:00+26юз788178 0.2 1016730
03:00+25юз8880100 0.3 1015787
06:00+25юз888093 0.3 1016795
09:00+25юз777825 0.0 1018845
12:00+25юз667657 0.1 1017821
15:00+25юз5575100 0.0 1015797
18:00+25юз557590 0.0 1016820
21:00+25зюз557584 0.0 1017896
9 августа, пн
пн900:00+25юз6673100 0.0 1016993
03:00+25юз6675100 0.1 1015772
06:00+25ююз4472100 0.2 1016881
09:00+25юз3372100 0.1 1018627
12:00+25ююз4471100 0.1 1017811
15:00+25юз557260 0.0 1015854
18:00+25юз4472100 0.1 1016762
21:00+25юз5577100 0.1 1017540